Tracking 35030 objects as of 9-Aug-2026
HD Live streaming from Space Station
objects crossing your sky now

SL-12 DEB


SL-12 DEB is no longer on orbit


NORAD ID: 29438
Int'l Code: 1989-039CM
Launch date: May 31, 1989
Source: Commonwealth of Independent States (former USSR) (CIS)
Launch site: TYURATAM MISSILE AND SPACE COMPLEX (TTMTR)
Decay date: 2007-01-29

Note: This is SATELLITE DEBRIS
Your satellite tracking list
Your tracking list is empty




NASA's NSSDC Master Catalog

Two Line Element Set (TLE):
1 29438U 89039CM  07007.74262943 +.06539324 +00000-0 +32191-0 0  9994
2 29438 065.8956 215.4708 4982900 056.8782 341.6345 05.73122526007323
Source of the keplerian elements: AFSPC